When you browse on this site, cookies collect data to enhance your experience and personalize the content and advertising you see.
Visit our Privacy Policy to learn more. By continuing to use the site, you agree to this use of cookies and data.
  • In United Kingdom
  • List of Countries
  • For 7 days
  • Water Temperature
  • Weather Map
  • Weather Widgets
  • user-avatar
    Login

    Hourly Weather Petrushiv

    Today, 5 June, Friday

    Time Temperature Precipitation Wind Pressure Humidity
    00:00 +15°C° 0 mm 4 mps 704 mmHg 94%
    01:00 +14°C° 0 mm 3 mps 704 mmHg 95%
    02:00 +12°C° 0 mm 2 mps 704 mmHg 100%
    03:00 +11°C° 0 mm 3 mps 704 mmHg 100%
    04:00 +11°C° 0 mm 4 mps 704 mmHg 96%
    05:00 +11°C° 0 mm 3 mps 704 mmHg 95%
    06:00 +11°C° 0.2 mm 3 mps 705 mmHg 98%
    07:00 +10°C° 0.2 mm 5 mps 705 mmHg 97%
    08:00 +12°C° 0 mm 5 mps 705 mmHg 97%
    09:00 +13°C° 0 mm 6 mps 705 mmHg 94%
    10:00 +14°C° 0 mm 5 mps 706 mmHg 91%
    11:00 +18°C° 0 mm 4 mps 706 mmHg 85%
    12:00 +20°C° 0 mm 5 mps 706 mmHg 79%
    13:00 +21°C° 0 mm 5 mps 706 mmHg 77%
    14:00 +21°C° 0 mm 5 mps 706 mmHg 81%
    15:00 +21°C° 0 mm 5 mps 705 mmHg 83%
    16:00 +21°C° 0 mm 5 mps 705 mmHg 82%
    17:00 +21°C° 0 mm 6 mps 705 mmHg 85%
    18:00 +21°C° 0 mm 5 mps 705 mmHg 88%
    19:00 +20°C° 0 mm 5 mps 705 mmHg 90%
    20:00 +19°C° 0 mm 4 mps 705 mmHg 92%
    21:00 +18°C° 0 mm 4 mps 705 mmHg 95%
    22:00 +18°C° 0 mm 4 mps 705 mmHg 95%
    23:00 +17°C° 0 mm 3 mps 706 mmHg 95%

    Tomorrow, 6 June, Saturday

    Time Temperature Precipitation Wind Pressure Humidity
    00:00 +17°C° 0 mm 3 mps 706 mmHg 94%
    01:00 +17°C° 0 mm 2 mps 707 mmHg 93%
    02:00 +17°C° 0 mm 2 mps 707 mmHg 89%
    03:00 +16°C° 0 mm 2 mps 708 mmHg 90%
    04:00 +15°C° 0 mm 2 mps 708 mmHg 93%
    05:00 +15°C° 0 mm 2 mps 708 mmHg 94%
    06:00 +15°C° 0 mm 2 mps 708 mmHg 94%
    07:00 +16°C° 0 mm 2 mps 709 mmHg 92%
    08:00 +18°C° 0 mm 1 mps 710 mmHg 89%
    09:00 +18°C° 0 mm 2 mps 710 mmHg 89%
    10:00 +20°C° 0 mm 1 mps 711 mmHg 88%
    11:00 +20°C° 0.4 mm 1 mps 711 mmHg 92%
    12:00 +21°C° 0.1 mm 1 mps 711 mmHg 87%
    13:00 +21°C° 0 mm 2 mps 711 mmHg 84%
    14:00 +23°C° 0 mm 2 mps 710 mmHg 81%
    15:00 +24°C° 0 mm 2 mps 710 mmHg 79%
    16:00 +24°C° 0 mm 2 mps 710 mmHg 78%
    17:00 +24°C° 0 mm 2 mps 710 mmHg 77%
    18:00 +24°C° 0 mm 1 mps 709 mmHg 78%
    19:00 +24°C° 0 mm 1 mps 709 mmHg 86%
    20:00 +21°C° 0 mm 3 mps 709 mmHg 91%
    21:00 +21°C° 0 mm 3 mps 709 mmHg 91%
    22:00 +20°C° 0 mm 4 mps 709 mmHg 90%
    23:00 +19°C° 0 mm 5 mps 709 mmHg 89%

    Day after tomorrow, 7 June, Sunday

    Time Temperature Precipitation Wind Pressure Humidity
    00:00 +19°C° 0 mm 5 mps 709 mmHg 89%
    01:00 +17°C° 0 mm 5 mps 709 mmHg 89%
    02:00 +16°C° 0 mm 5 mps 709 mmHg 88%
    03:00 +17°C° 0 mm 4 mps 709 mmHg 87%
    04:00 +17°C° 0 mm 4 mps 709 mmHg 87%
    05:00 +17°C° 0 mm 4 mps 709 mmHg 86%
    06:00 +17°C° 0 mm 4 mps 709 mmHg 84%
    07:00 +18°C° 0 mm 4 mps 709 mmHg 82%
    08:00 +19°C° 0 mm 4 mps 710 mmHg 79%
    09:00 +21°C° 0 mm 4 mps 710 mmHg 76%
    10:00 +22°C° 0 mm 4 mps 710 mmHg 74%
    11:00 +23°C° 0 mm 4 mps 710 mmHg 71%
    12:00 +25°C° 0 mm 4 mps 710 mmHg 71%
    13:00 +25°C° 0 mm 4 mps 710 mmHg 70%
    14:00 +26°C° 0 mm 5 mps 710 mmHg 70%
    15:00 +26°C° 0 mm 5 mps 710 mmHg 71%
    16:00 +26°C° 0 mm 4 mps 709 mmHg 72%
    17:00 +26°C° 0 mm 4 mps 709 mmHg 75%
    18:00 +25°C° 0 mm 5 mps 709 mmHg 80%
    19:00 +22°C° 0 mm 3 mps 709 mmHg 86%
    20:00 +21°C° 0 mm 2 mps 709 mmHg 90%
    21:00 +21°C° 0 mm 2 mps 709 mmHg 89%
    22:00 +20°C° 0 mm 3 mps 709 mmHg 88%
    23:00 +19°C° 0 mm 3 mps 709 mmHg 87%

    8 June, Monday

    Time Temperature Precipitation Wind Pressure Humidity
    00:00 +19°C° 0 mm 3 mps 710 mmHg 84%
    01:00 +18°C° 0 mm 3 mps 709 mmHg 80%
    02:00 +17°C° 0 mm 3 mps 709 mmHg 78%
    03:00 +17°C° 0 mm 3 mps 709 mmHg 76%
    04:00 +17°C° 0 mm 2 mps 709 mmHg 74%
    05:00 +16°C° 0 mm 2 mps 708 mmHg 74%
    06:00 +16°C° 0 mm 2 mps 708 mmHg 79%
    07:00 +18°C° 0 mm 1 mps 709 mmHg 86%
    08:00 +20°C° 0 mm 1 mps 709 mmHg 88%
    09:00 +21°C° 0 mm 1 mps 709 mmHg 80%
    10:00 +22°C° 0 mm 1 mps 710 mmHg 75%
    11:00 +23°C° 0 mm 1 mps 709 mmHg 74%
    12:00 +24°C° 0 mm 1 mps 709 mmHg 76%
    13:00 +24°C° 0 mm 1 mps 709 mmHg 75%
    14:00 +25°C° 0 mm 1 mps 708 mmHg 73%
    15:00 +25°C° 0 mm 1 mps 708 mmHg 76%
    16:00 +21°C° 1.4 mm 7 mps 707 mmHg 84%
    17:00 +21°C° 0.4 mm 3 mps 707 mmHg 88%
    18:00 +23°C° 0 mm 1 mps 707 mmHg 86%
    19:00 +21°C° 0.2 mm 2 mps 707 mmHg 91%
    20:00 +22°C° 0 mm 1 mps 707 mmHg 96%
    21:00 +21°C° 0 mm 1 mps 707 mmHg 92%
    22:00 +20°C° 0 mm 2 mps 708 mmHg 90%
    23:00 +19°C° 0 mm 2 mps 708 mmHg 89%

    9 June, Tuesday

    Time Temperature Precipitation Wind Pressure Humidity
    00:00 +18°C° 0 mm 3 mps 708 mmHg 89%
    01:00 +18°C° 0 mm 3 mps 707 mmHg 88%
    02:00 +17°C° 0 mm 3 mps 707 mmHg 88%
    03:00 +17°C° 0 mm 3 mps 707 mmHg 90%
    04:00 +16°C° 0 mm 3 mps 707 mmHg 92%
    05:00 +16°C° 0 mm 3 mps 707 mmHg 94%
    06:00 +16°C° 0 mm 3 mps 708 mmHg 96%
    07:00 +17°C° 0 mm 3 mps 708 mmHg 98%
    08:00 +17°C° 0 mm 3 mps 709 mmHg 98%
    09:00 +18°C° 0.1 mm 2 mps 709 mmHg 98%
    10:00 +19°C° 0 mm 2 mps 710 mmHg 96%
    11:00 +21°C° 0 mm 2 mps 709 mmHg 91%
    12:00 +23°C° 0 mm 1 mps 709 mmHg 86%
    13:00 +24°C° 0 mm 1 mps 709 mmHg 83%
    14:00 +24°C° 0 mm 1 mps 709 mmHg 81%
    15:00 +24°C° 0 mm 1 mps 708 mmHg 81%
    16:00 +25°C° 0 mm 3 mps 708 mmHg 81%
    17:00 +23°C° 0 mm 2 mps 708 mmHg 84%
    18:00 +23°C° 0 mm 2 mps 708 mmHg 83%
    19:00 +23°C° 0 mm 2 mps 708 mmHg 86%
    20:00 +22°C° 0 mm 1 mps 708 mmHg 93%
    21:00 +21°C° 0 mm 1 mps 708 mmHg 98%
    22:00 +19°C° 0 mm 0 mps 708 mmHg 96%
    23:00 +20°C° 0 mm 1 mps 709 mmHg 96%

    10 June, Wednesday

    Time Temperature Precipitation Wind Pressure Humidity
    00:00 +20°C° 0 mm 1 mps 709 mmHg 95%
    01:00 +20°C° 0 mm 1 mps 709 mmHg 90%
    02:00 +20°C° 0 mm 1 mps 709 mmHg 91%
    03:00 +19°C° 0 mm 1 mps 708 mmHg 93%
    04:00 +18°C° 0 mm 2 mps 709 mmHg 89%
    05:00 +18°C° 0 mm 2 mps 708 mmHg 87%
    06:00 +18°C° 0 mm 2 mps 709 mmHg 91%
    07:00 +20°C° 0 mm 1 mps 709 mmHg 92%
    08:00 +20°C° 0 mm 2 mps 709 mmHg 89%
    09:00 +21°C° 0 mm 1 mps 709 mmHg 90%
    10:00 +20°C° 0 mm 0 mps 710 mmHg 89%
    11:00 +21°C° 0 mm 0 mps 709 mmHg 90%
    12:00 +22°C° 0 mm 0 mps 709 mmHg 89%
    13:00 +23°C° 0.9 mm 4 mps 708 mmHg 91%
    14:00 +21°C° 3.2 mm 3 mps 708 mmHg 82%
    15:00 +24°C° 2.3 mm 2 mps 708 mmHg 89%
    16:00 +24°C° 1.6 mm 2 mps 708 mmHg 93%
    17:00 +25°C° 0 mm 2 mps 708 mmHg 86%
    18:00 +25°C° 0 mm 3 mps 708 mmHg 83%
    19:00 +23°C° 0 mm 4 mps 708 mmHg 84%
    20:00 +22°C° 0 mm 4 mps 708 mmHg 85%
    21:00 +21°C° 0 mm 4 mps 708 mmHg 86%
    22:00 +20°C° 0 mm 4 mps 708 mmHg 85%
    23:00 +19°C° 0 mm 5 mps 708 mmHg 85%
    Show more